| time (UTC) | temp F | wind direction | speed MPH | gust MPH | rain 1hr in | rain 24hr in | rain mn in | humidity % | barometer mb |
| 20260506102009 | 50 | 199 | 0.0 | 0.0 | 0.00 | 0.01 | 0.00 | 100 | 1020.5 |
| 20260506101010 | 50 | 199 | 0.0 | 0.0 | 0.00 | 0.01 | 0.00 | 100 | 1020.4 |
| 20260506100010 | 50 | 199 | 0.0 | 0.0 | 0.00 | 0.02 | 0.00 | 100 | 1020.4 |
| 20260506095010 | 50 | 199 | 0.0 | 0.0 | 0.00 | 0.02 | 0.00 | 100 | 1020.4 |
| 20260506094009 | 50 | 199 | 0.0 | 0.0 | 0.00 | 0.02 | 0.00 | 100 | 1020.3 |
| 20260506093009 | 49 | 199 | 0.0 | 0.0 | 0.00 | 0.02 | 0.00 | 100 | 1020.3 |
| 20260506092009 | 49 | 199 | 0.0 | 0.0 | 0.00 | 0.03 | 0.00 | 100 | 1020.3 |
| 20260506091011 | 49 | 199 | 0.0 | 0.0 | 0.00 | 0.03 | 0.00 | 100 | 1020.2 |
| 20260506090010 | 49 | 199 | 0.0 | 0.0 | 0.00 | 0.03 | 0.00 | 100 | 1020.2 |
| 20260506085009 | 49 | 199 | 0.0 | 0.0 | 0.00 | 0.03 | 0.00 | 100 | 1020.0 |
| 20260506084009 | 50 | 199 | 0.0 | 0.0 | 0.00 | 0.03 | 0.00 | 100 | 1019.6 |
| 20260506083009 | 50 | 199 | 0.0 | 0.0 | 0.00 | 0.03 | 0.00 | 100 | 1019.7 |
| 20260506082010 | 50 | 199 | 0.0 | 0.0 | 0.00 | 0.04 | 0.00 | 100 | 1019.7 |
| 20260506072009 | 50 | 7 | 0.0 | 0.0 | 0.00 | 0.07 | 0.00 | 100 | 1020.5 |
| 20260506071009 | 50 | 7 | 0.0 | 0.0 | 0.00 | 0.07 | 0.00 | 100 | 1020.2 |
| 20260506061009 | 51 | 7 | 0.0 | 0.0 | 0.00 | 0.08 | 0.07 | 100 | 1019.4 |
| 20260506051009 | 52 | 7 | 0.0 | 0.0 | 0.00 | 0.08 | 0.07 | 100 | 1019.1 |
| 20260506045009 | 53 | 7 | 0.0 | 0.0 | 0.00 | 0.08 | 0.07 | 100 | 1018.9 |
| 20260506044009 | 53 | 7 | 0.0 | 0.0 | 0.00 | 0.08 | 0.07 | 100 | 1018.9 |
| 20260506043010 | 53 | 7 | 0.0 | 0.0 | 0.00 | 0.08 | 0.07 | 99 | 1018.9 |
| 20260506042010 | 53 | 7 | 0.0 | 0.0 | 0.00 | 0.08 | 0.07 | 98 | 1018.8 |
| 20260506041010 | 53 | 7 | 0.0 | 0.0 | 0.00 | 0.08 | 0.07 | 97 | 1018.6 |
| 20260506040009 | 53 | 7 | 0.0 | 0.0 | 0.00 | 0.08 | 0.07 | 97 | 1018.5 |
| 20260506035010 | 53 | 7 | 0.0 | 0.0 | 0.00 | 0.08 | 0.07 | 96 | 1018.4 |
| 20260506034009 | 53 | 7 | 0.0 | 0.0 | 0.00 | 0.08 | 0.07 | 96 | 1018.2 |
| 20260506033010 | 53 | 7 | 0.0 | 0.0 | 0.00 | 0.08 | 0.07 | 95 | 1018.1 |
| 20260506032009 | 54 | 7 | 0.0 | 0.0 | 0.00 | 0.08 | 0.07 | 95 | 1018.0 |
| 20260506031009 | 54 | 7 | 0.0 | 0.0 | 0.00 | 0.08 | 0.07 | 95 | 1017.9 |
| 20260506030010 | 54 | 7 | 0.0 | 0.0 | 0.00 | 0.08 | 0.07 | 94 | 1017.9 |
| 20260506025009 | 54 | 7 | 0.0 | 0.0 | 0.00 | 0.08 | 0.07 | 95 | 1017.9 |
| 20260506023010 | 54 | 7 | 0.0 | 0.0 | 0.00 | 0.08 | 0.07 | 94 | 1017.7 |
| 20260506022010 | 54 | 7 | 0.0 | 0.0 | 0.00 | 0.08 | 0.07 | 94 | 1017.7 |
| 20260506021010 | 54 | 7 | 0.0 | 0.0 | 0.00 | 0.21 | 0.07 | 94 | 1017.5 |
| 20260506015010 | 54 | 7 | 0.0 | 0.0 | 0.00 | 0.21 | 0.07 | 93 | 1017.7 |
| 20260506014010 | 54 | 7 | 0.0 | 0.0 | 0.00 | 0.21 | 0.07 | 93 | 1017.4 |
| 20260506013009 | 54 | 7 | 0.0 | 0.0 | 0.00 | 0.21 | 0.07 | 93 | 1017.5 |
| 20260506012010 | 54 | 7 | 0.0 | 0.0 | 0.00 | 0.21 | 0.07 | 94 | 1017.5 |
| 20260506005010 | 54 | 7 | 0.0 | 5.0 | 0.00 | 0.21 | 0.07 | 92 | 1017.5 |
| 20260506004009 | 54 | 16 | 0.0 | 6.0 | 0.00 | 0.21 | 0.07 | 91 | 1017.5 |
| 20260506003010 | 54 | 2 | 0.0 | 5.0 | 0.00 | 0.21 | 0.07 | 90 | 1017.5 |
| 20260506002010 | 55 | 24 | 0.0 | 0.0 | 0.00 | 0.21 | 0.07 | 88 | 1017.5 |
| 20260506001010 | 55 | 24 | 0.0 | 0.0 | 0.00 | 0.21 | 0.07 | 88 | 1017.4 |
| 20260506000011 | 55 | 24 | 0.0 | 6.0 | 0.00 | 0.21 | 0.07 | 87 | 1017.3 |
| 20260505235010 | 55 | 342 | 0.0 | 0.0 | 0.00 | 0.21 | 0.07 | 87 | 1017.3 |
| 20260505234010 | 55 | 342 | 0.0 | 3.0 | 0.00 | 0.21 | 0.07 | 88 | 1017.2 |
| 20260505233009 | 54 | 337 | 0.0 | 3.0 | 0.00 | 0.21 | 0.07 | 89 | 1017.2 |
| 20260505232010 | 54 | 21 | 0.0 | 6.0 | 0.00 | 0.21 | 0.07 | 89 | 1017.1 |
| 20260505231010 | 54 | 25 | 0.0 | 7.0 | 0.00 | 0.21 | 0.07 | 88 | 1017.2 |
| 20260505230010 | 55 | 334 | 0.0 | 6.0 | 0.00 | 0.21 | 0.07 | 87 | 1017.2 |
| 20260505225009 | 55 | 328 | 0.0 | 5.0 | 0.00 | 0.21 | 0.07 | 87 | 1017.2 |
| 20260505224009 | 54 | 304 | 0.0 | 0.0 | 0.00 | 0.21 | 0.07 | 88 | 1017.1 |
| 20260505222010 | 54 | 13 | 0.0 | 0.0 | 0.00 | 0.21 | 0.07 | 87 | 1017.4 |
| 20260505220009 | 54 | 11 | 1.0 | 5.0 | 0.00 | 0.21 | 0.07 | 88 | 1017.2 |
| 20260505215018 | 54 | 0 | 0.0 | 5.0 | 0.00 | 0.21 | 0.07 | 90 | 1017.3 |
| 20260505214010 | 54 | 349 | 1.0 | 6.0 | 0.00 | 0.21 | 0.07 | 90 | 1017.3 |
| 20260505213009 | 53 | 20 | 0.0 | 3.0 | 0.00 | 0.21 | 0.07 | 91 | 1017.3 |
| 20260505212010 | 53 | 312 | 0.0 | 6.0 | 0.00 | 0.21 | 0.07 | 91 | 1017.4 |
| 20260505211011 | 53 | 335 | 3.0 | 6.0 | 0.00 | 0.21 | 0.07 | 91 | 1017.4 |
| 20260505210009 | 53 | 357 | 2.0 | 6.0 | 0.00 | 0.21 | 0.07 | 91 | 1017.3 |
| 20260505205010 | 53 | 8 | 0.0 | 0.0 | 0.00 | 0.21 | 0.07 | 92 | 1017.3 |
| 20260505204009 | 53 | 8 | 3.0 | 7.0 | 0.00 | 0.21 | 0.07 | 91 | 1017.4 |
| 20260505202010 | 53 | 324 | 1.0 | 6.0 | 0.00 | 0.21 | 0.07 | 91 | 1017.2 |
| 20260505201010 | 53 | 265 | 2.0 | 6.0 | 0.00 | 0.21 | 0.07 | 92 | 1017.3 |
| 20260505200014 | 53 | 10 | 2.0 | 7.0 | 0.00 | 0.21 | 0.07 | 92 | 1017.3 |
| 20260505195009 | 53 | 16 | 2.0 | 7.0 | 0.00 | 0.21 | 0.07 | 92 | 1017.4 |
| 20260505194010 | 53 | 8 | 3.0 | 8.0 | 0.00 | 0.21 | 0.07 | 91 | 1017.4 |
| 20260505192009 | 53 | 30 | 1.0 | 9.0 | 0.00 | 0.21 | 0.07 | 91 | 1017.3 |
| 20260505191009 | 54 | 344 | 3.0 | 7.0 | 0.00 | 0.21 | 0.07 | 88 | 1017.3 |
| 20260505190009 | 54 | 52 | 0.0 | 6.0 | 0.00 | 0.21 | 0.07 | 91 | 1017.1 |
| 20260505185009 | 53 | 334 | 0.0 | 6.0 | 0.00 | 0.21 | 0.07 | 93 | 1017.0 |
| 20260505184010 | 52 | 335 | 0.0 | 5.0 | 0.00 | 0.21 | 0.07 | 96 | 1017.0 |
| 20260505183009 | 52 | 318 | 2.0 | 6.0 | 0.00 | 0.21 | 0.07 | 96 | 1017.0 |
| 20260505181010 | 53 | 294 | 0.0 | 0.0 | 0.00 | 0.21 | 0.07 | 93 | 1016.9 |
| 20260505175009 | 53 | 294 | 0.0 | 3.0 | 0.00 | 0.21 | 0.07 | 93 | 1016.6 |
| 20260505174009 | 53 | 291 | 1.0 | 6.0 | 0.00 | 0.21 | 0.07 | 96 | 1016.6 |
| 20260505173009 | 52 | 337 | 1.0 | 9.0 | 0.00 | 0.21 | 0.07 | 100 | 1016.2 |
| 20260505172010 | 51 | 0 | 0.0 | 3.0 | 0.00 | 0.21 | 0.07 | 100 | 1016.4 |
| 20260505171009 | 51 | 7 | 0.0 | 0.0 | 0.00 | 0.21 | 0.07 | 100 | 1016.1 |
| 20260505170009 | 51 | 3 | 2.0 | 8.0 | 0.00 | 0.21 | 0.07 | 100 | 1016.3 |
| 20260505165010 | 50 | 347 | 0.0 | 6.0 | 0.00 | 0.21 | 0.07 | 100 | 1016.0 |
| 20260505163009 | 50 | 349 | 0.0 | 2.0 | 0.00 | 0.21 | 0.07 | 100 | 1016.1 |
| 20260505162009 | 50 | 1 | 2.0 | 6.0 | 0.01 | 0.21 | 0.07 | 100 | 1016.1 |
| 20260505161010 | 50 | 0 | 0.0 | 0.0 | 0.01 | 0.21 | 0.07 | 100 | 1016.1 |
| 20260505153009 | 50 | 0 | 0.0 | 0.0 | 0.01 | 0.21 | 0.07 | 100 | 1015.8 |
| 20260505152009 | 50 | 0 | 0.0 | 0.0 | 0.00 | 0.20 | 0.06 | 100 | 1015.7 |
| 20260505151009 | 49 | 0 | 0.0 | 0.0 | 0.00 | 0.20 | 0.06 | 100 | 1015.7 |
| 20260505124009 | 48 | 0 | 0.0 | 0.0 | 0.00 | 0.24 | 0.06 | 100 | 1015.0 |
| 20260505123009 | 48 | 0 | 0.0 | 0.0 | 0.00 | 0.26 | 0.06 | 100 | 1014.9 |
| 20260505122010 | 48 | 0 | 0.0 | 0.0 | 0.00 | 0.28 | 0.06 | 100 | 1014.9 |
| 20260505121010 | 48 | 0 | 0.0 | 0.0 | 0.00 | 0.28 | 0.06 | 100 | 1014.8 |
| 20260505120010 | 48 | 0 | 0.0 | 0.0 | 0.00 | 0.29 | 0.06 | 100 | 1014.8 |
| 20260505115009 | 48 | 0 | 0.0 | 0.0 | 0.00 | 0.31 | 0.06 | 100 | 1014.8 |
| 20260505114009 | 48 | 0 | 0.0 | 0.0 | 0.00 | 0.32 | 0.06 | 100 | 1014.9 |
| 20260505113010 | 48 | 0 | 0.0 | 0.0 | 0.00 | 0.32 | 0.06 | 100 | 1014.9 |
| 20260505112009 | 48 | 0 | 0.0 | 0.0 | 0.00 | 0.32 | 0.06 | 100 | 1014.9 |
| 20260505111009 | 48 | 0 | 0.0 | 0.0 | 0.00 | 0.32 | 0.06 | 100 | 1015.0 |